Torax TimeFrame

Torax TimeFrame ⇒ XML

NameTime LeftWindow OpensKilledCrew
Lacuste of the Swarm1d 19:402018-05-22 11:50:002018-05-01 22:29:00Excommunicado
Q-SEC Commander1d 17:002018-05-22 14:30:002018-05-03 14:40:00Pulse
Nar Zhul, Slayer of All1d 12:092018-05-22 19:21:002018-04-30 05:15:00SAVAGE [POT3]
Mistress of the Sword0d 22:212018-05-23 09:09:002018-05-02 12:17:00Zero Division
Hackerphage, Protector of the Gateway0d 21:142018-05-23 10:16:002018-05-01 14:11:00[FAP] CoesC
Lord Xordam0d 21:102018-05-23 10:20:002018-05-01 18:22:00A$$holes of America
Ag Nabak the Abomination0d 20:262018-05-23 11:04:002018-04-29 20:26:00-= ILLUMINATI =-
Quiver, The Renegade0d 19:552018-05-23 11:35:002018-04-30 06:50:00-= ILLUMINATI =-
Lady Ariella0d 19:152018-05-23 12:15:002018-05-04 00:18:00SAVAGE [POT1]
Murderface0d 19:142018-05-23 12:16:002018-05-02 18:12:00-= ILLUMINATI =-
Pinosis0d 15:442018-05-23 15:46:002018-05-02 10:28:00Blood&Honor
Rancid, Lord of Thugs0d 15:172018-05-23 16:13:002018-05-03 10:09:00-= ILLUMINATI =-
Dlanod, the Crazed Chancellor0d 15:172018-05-23 16:13:002018-04-29 01:27:00SAVAGES
Gorganus of the Wood0d 14:442018-05-23 16:46:002018-05-01 12:50:00SAVAGE
Traxodon the Plaguebringer0d 11:022018-05-23 20:28:002018-05-01 22:00:00The Bloodguards
Melt Bane, The Forbidden Demon Dragon0d 10:392018-05-23 20:51:002018-05-02 05:32:00[FAP] CoesC
Vitkros, Hydra of the Deep0d 10:282018-05-23 21:02:002018-05-03 18:06:00The Last One Standing
Rotborn, Eater of the Dead0d 10:182018-05-23 21:12:002018-05-02 11:45:00[FAP] CoesD
Bloodchill the Grizzly0d 09:382018-05-23 21:52:002018-05-03 13:12:00perdition {t-c}
Kro Shuk, Doomslayer0d 09:092018-05-23 22:21:002018-04-27 21:56:00SAVAGE [POT1]
Akkel the Enflamed Warrior0d 05:512018-05-24 01:39:002018-05-03 02:22:00SAVAGE [ASTRAL3]
Freezebreed, The Frozen Manipulator0d 03:182018-05-24 04:12:002018-05-03 17:39:00SAVAGE [FREEZE]
The Emerald Assassin0d 02:372018-05-24 04:53:002018-05-02 03:17:00Untaimables
Synge, The Red Dragon0d 02:202018-05-24 05:10:002018-05-01 21:39:00The Bloodguards
Tylos, The Lord Master0d 02:172018-05-24 05:13:002018-05-03 17:18:00The Last One Standing
Lord Narada0d 02:162018-05-24 05:14:002018-05-03 14:59:00[FAP] PotSetD
Anguish0d 02:032018-05-24 05:27:002018-05-03 11:33:00stoka100
Ganja the Stone Golem0d 01:442018-05-24 05:46:002018-05-02 10:49:00Zero Division
Lady Chaos, Queen of the Abyss0d 01:362018-05-24 05:54:002018-05-04 03:20:00SAVAGE [COES4]
Baron Mu, Dark Rider of the Undead0d 01:302018-05-24 06:00:002018-05-03 19:46:00[FAP] Baron
Nafir, God of Desolation0d 00:322018-05-24 06:58:002018-04-29 10:46:00##ARGYBOYZ##
Volgan the Living Ironbark0d 00:052018-05-24 07:36:002018-05-03 01:25:00SAVAGE [ASTRAL4]
Wanhiroeaz the Devourer0d 00:202018-05-24 07:51:002018-05-02 14:09:00The Last One Standing
Garland, The Lord Keeper0d 00:562018-05-24 08:27:002018-05-02 20:48:00The Last One Standing
Lord Varan0d 02:112018-05-24 09:42:002018-05-03 19:34:00SAVAGE [POT4]
Balerion, Dragon of Dread0d 03:352018-05-24 11:06:002018-04-28 18:41:00##ARGYBOYZ##
Viserion, the Necrodragon0d 04:052018-05-24 11:36:002018-04-29 00:28:00SAVAGES
Jorun the Blazing Swordsman0d 05:562018-05-24 13:27:002018-05-02 03:32:00[FAP] AstralD
Smoot the Yeti0d 10:152018-05-24 17:46:002018-05-02 05:42:00-= ILLUMINATI =-
Ebliss, Fallen Angel of Despair0d 10:352018-05-24 18:06:002018-05-03 14:19:00SAVAGE [POT1]
Detox0d 11:022018-05-24 18:33:002018-05-02 18:15:00Fire and Fury
Slashbrood, Devourer of the Blackness0d 12:312018-05-24 20:02:002018-05-01 13:09:00SAVAGE [COES2]
Jazzmin, Maiden of Vitality0d 13:302018-05-24 21:01:002018-05-01 12:52:00Zero Division
Crane0d 13:312018-05-24 21:02:002018-05-03 01:16:00Blood&Honor
Lord Suka0d 14:252018-05-24 21:56:002018-05-01 15:33:00[FAP] PotSetC
Skybrine The Inescapable0d 14:482018-05-24 22:19:002018-05-02 06:01:00Warriors
Hyrak, Bringer of Nightmares0d 15:082018-05-24 22:39:002018-05-02 16:45:00-Brothers In Arms-
Howldroid, Tormentor of the Pit0d 15:162018-05-24 22:47:002018-05-03 02:55:00[FAP] CoesB
Threk, King of Lords0d 15:472018-05-24 23:18:002018-05-03 16:52:00The Last One Standing
Bolkor, the Holy Master0d 18:082018-05-25 01:39:002018-05-03 22:01:00Pulse
Zikkir the Dark Archer0d 18:192018-05-25 01:50:002018-05-02 14:27:00[FAP] AstralA
Brutalitar, Lord of the Underworld0d 19:272018-05-25 02:58:002018-05-02 03:14:00[FAP] PotSetA
Ancient Magus Tarkin0d 19:542018-05-25 03:25:002018-05-02 16:15:00[FAP] AstralC
Great Lord Ganeshan0d 21:332018-05-25 05:04:002018-05-03 16:52:00[FAP] PotSetA
Xynak, the Arcane Master1d 00:132018-05-25 07:44:002018-05-02 02:09:00Pulse
Gnorb1d 00:462018-05-25 08:17:002018-05-04 03:50:00Axis of Anarchy
Shadow1d 01:182018-05-25 08:49:002018-05-03 12:41:00stoka100
Nessam1d 03:332018-05-25 11:04:002018-05-03 13:14:00perdition {t-c}
Nayark the Mummified Sorcerer1d 03:422018-05-25 11:13:002018-05-01 07:20:00[FAP] AstralC
Tsort1d 04:192018-05-25 11:50:002018-05-03 16:30:00perdition {t-c}
Emperor Neudeus, Controller of the Universe1d 07:222018-05-25 14:53:002018-04-27 15:25:00SAVAGE [COES2]
Sarcrina the Astral Priestess1d 07:542018-05-25 15:25:002018-05-02 21:10:00SAVAGE [ASTRAL3]
Straya, the Underworld Ruler1d 08:092018-05-25 15:40:002018-04-29 02:37:00SAVAGES
Terrance, Rebel of Rallis1d 09:272018-05-25 16:58:002018-05-01 21:34:00The Bloodguards
Samatha Dark-Soul1d 11:502018-05-25 19:21:002018-04-30 23:00:00-= ILLUMINATI =-
Grivvek, Protector of the Brood1d 15:002018-05-25 22:31:002018-05-01 13:55:00Warriors
Numerocure, The Black Messenger of Evil1d 15:042018-05-25 22:35:002018-05-01 12:28:00[FAP] CoesD
Archdevil Yirkon1d 17:422018-05-26 01:13:002018-05-03 08:52:00[FAP] AstralD
Crolvak, the Fire Master1d 18:182018-05-26 01:49:002018-05-03 21:29:00SAVAGES
Dreg nor, Keeper of the Infernal Essence1d 21:132018-05-26 04:44:002018-05-01 04:31:00$AVAGE$
Keeper of Nature1d 22:242018-05-26 05:55:002018-05-03 15:31:00SAVAGE [ASTRAL2]
Lord Sibannac2d 03:052018-05-26 10:36:002018-05-03 14:57:00perdition {t-c}
Zertan, The Collector2d 04:292018-05-26 12:00:002018-05-03 14:08:00Maroder
Amalgamated Apparition2d 10:432018-05-26 18:14:002018-05-03 12:01:00[FAP] AstralC
Esquin, the Kinetic Master2d 10:562018-05-26 18:27:002018-04-28 22:00:00~ The Following ~
Ormsul the Putrid2d 14:332018-05-26 22:04:002018-04-30 03:21:00Excommunicado
Sylvanna TorLai2d 15:012018-05-26 22:32:002018-05-03 01:09:00Excommunicado
King Ashnar, Lord of the Unliving2d 17:282018-05-27 00:59:002018-05-01 14:50:00$AVAGE$
Anvilfist2d 21:172018-05-27 04:48:002018-05-02 23:11:00SAVAGE
Felroc, Overseer of Hellfire3d 00:362018-05-27 08:07:002018-05-03 11:25:00##ARGYBOYZ##
Raiyar, the Shadow Master3d 00:562018-05-27 08:27:002018-04-30 07:52:00Pulse
Skarthul the Avenged3d 01:232018-05-27 08:54:002018-05-01 08:22:00##ARGYBOYZ##
Animated Captain3d 07:012018-05-27 14:32:002018-04-17 14:02:00Pulse
Windstrike The Vile3d 08:582018-05-27 16:29:002018-04-30 10:29:00##ARGYBOYZ##
Sigil, Lich of Woe3d 16:512018-05-28 00:22:002018-05-03 20:19:00-= ILLUMINATI =-
Kretok, Descendant of Nature4d 16:572018-05-29 00:28:002018-05-02 09:43:00Pulse
Karvaz, Lord of Alsayic4d 17:072018-05-29 00:38:002018-05-02 17:57:00SAVAGES
Jade Dragonite88d 18:512018-02-24 12:39:002018-02-20 00:39:00 ##ARGYBOYZ##
Old World Drake59d 07:402018-03-25 23:50:002018-03-21 11:50:00_-Legacy-_
Crantos, Defender of Ultimation13d 09:472018-05-10 21:43:002018-04-30 16:34:00##ARGYBOYZ##
Varsanor, Master of Darkness7d 02:312018-05-17 04:59:002018-05-01 11:08:00- Insomnia -
91 Gods, Last update: 2018-05-24 06:30:02